Flag for India Weather past 2 weeks in Akbarpur, Uttar Pradesh, India

57 °F


Feels Like: 57 °F
Forecast: 62 / 84 °F
Wind: No wind

Location: Lucknow / Amausi

Current Time: Nov 25, 2015 at 4:39:02 AM

Latest Report: Nov 25, 2015 at 4:00 AM

Visibility: 1 mi

Pressure: 29.92 "Hg

Humidity: 88%

Dew point: 54 °F

Location of AkbarpurLocation

Historic Weather in Akbarpur — Graph


Akbarpur temperature yesterday

Maximum temperature yesterday: 84 °F (at 3:30 PM)
Minimum temperature yesterday: 61 °F (at 5:00 AM)
Average temperature yesterday: 72 °F

Past Weeks' High & Low Weather Summary

High90 °F (Nov 10, 2:00 PM)88% (Nov 10, 6:00 AM)30.09 "Hg (Nov 10, 6:00 AM)
Low55 °F (Nov 19, 6:30 AM)24% (Nov 12, 2:30 PM)29.80 "Hg (Nov 14, 3:30 PM)
Average74 °F55%29.93 "Hg
* Reported Nov 10 3:00 AM — Nov 25 3:00 AM, Akbarpur, Weather by CustomWeather, © 2015

Note: Actual official high and low records may vary slightly from our data, if they occured in-between our weather recording intervals... More about our weather records


Akbarpur weather history for previous 24 hours

Time TempWeatherWind HumidityBarometerVisibility
3:00 AM
Wed, Nov 25
59 °FFog.No wind82%29.92 "Hg1 mi
2:00 AM59 °FFog.No wind82%29.95 "Hg1 mi
1:00 AM61 °FFog.No wind83%29.95 "Hg1 mi
12:00 AM61 °FFog.No wind83%29.95 "Hg1 mi
11:00 PM
Tue, Nov 24
63 °FFog.No wind77%29.95 "Hg1 mi
10:00 PM64 °FHaze.No wind73%29.98 "Hg1 mi
9:00 PM66 °FHaze.No wind68%29.95 "Hg1 mi
8:30 PM66 °FHaze.No wind68%29.95 "Hg1 mi
8:00 PM70 °FHaze.2 mph60%29.95 "Hg1 mi
7:30 PM70 °FHaze.2 mph60%29.95 "Hg1 mi
7:00 PM72 °FHaze.2 mph57%29.95 "Hg1 mi
6:00 PM73 °FHaze.No wind57%29.92 "Hg2 mi
5:30 PM75 °FHaze.No wind50%29.92 "Hg2 mi
5:00 PM77 °FScattered clouds.3 mph47%29.92 "Hg2 mi
4:30 PM81 °FScattered clouds.3 mph39%29.92 "Hg2 mi
4:00 PM82 °FScattered clouds.3 mph40%29.92 "Hg2 mi
3:30 PM84 °FScattered clouds.3 mph37%29.92 "Hg2 mi
3:00 PM82 °FScattered clouds.5 mph40%29.92 "Hg2 mi
2:30 PM82 °FScattered clouds.5 mph40%29.95 "Hg2 mi
2:00 PM82 °FScattered clouds.3 mph42%29.95 "Hg2 mi
1:30 PM82 °FScattered clouds.5 mph40%29.98 "Hg2 mi
1:00 PM82 °FScattered clouds.3 mph45%29.98 "Hg2 mi
12:30 PM82 °FScattered clouds.2 mph42%29.98 "Hg2 mi
11:30 AM81 °FBroken clouds.No wind48%30.01 "Hg2 mi
11:00 AM79 °FBroken clouds.No wind48%30.01 "Hg1 mi
10:00 AM75 °FScattered clouds.No wind57%30.04 "Hg1 mi
9:00 AM68 °FScattered clouds.No wind73%30.04 "Hg1 mi
8:30 AM64 °FFog.No wind78%30.01 "Hg1 mi
8:00 AM63 °FFog.No wind88%30.01 "Hg1 mi
6:00 AM61 °FFog.No wind83%29.98 "Hg1 mi
5:00 AM61 °FFog.No wind88%29.95 "Hg1 mi
4:00 AM63 °FFog.No wind83%29.95 "Hg1 mi
Weather by CustomWeather, © 2015

See weather overviewHow to use our weather pages